Weather History for KLDJ - April, 2013

Change the Weather History Date:

Wednesday, April 24, 2013

  Actual Average (KEWR) Record (KEWR)
Temperature  
Mean Temperature 58 °F 56 °F  
Max Temperature 74 °F 65 °F 87 °F (2001)
Min Temperature 41 °F 47 °F 36 °F (1967)
Degree Days  
Heating Degree Days 8 10  
Month to date heating degree days 325  
Since 1 July heating degree days 4669  
Cooling Degree Days 0 1  
Month to date cooling degree days 3  
Year to date cooling degree days 4  
Growing Degree Days 8 (Base 50)    
Moisture  
Dew Point 45 °F    
Average Humidity 66    
Maximum Humidity 88    
Minimum Humidity 42    
Precipitation  
Precipitation 0.00 in 0.13 in 1.72 in (1944)
Month to date precipitation 3.41  
Year to date precipitation 14.01  
Snow  
Snow 0.00 in 0.00 in T in (1967)
Month to date snowfall 0.9  
Since 1 July snowfall 28.5  
Snow Depth -    
Sea Level Pressure  
Sea Level Pressure 29.97 in    
Wind  
Wind Speed 6 mph (SW)    
Max Wind Speed 13 mph    
Max Gust Speed 18 mph    
Visibility 10 miles    
Events      
T = Trace of Precipitation, MM = Missing Value Source: NWS Daily Summary

Daily Weather History Graph

Daily Weather History Graph

Search for Another Location

Airport or City:

Trip Planner

Search our weather history database for the weather conditions in past years. The results will help you decide how hot, cold, wet, or windy it might be!

Date:

Astronomy

Apr. 24, 2013 Rise Set
Actual Time 6:04 AM EDT 7:45 PM EDT
Civil Twilight 5:35 AM EDT 8:15 PM EDT
Nautical Twilight 5:00 AM EDT 8:50 PM EDT
Astronomical Twilight 4:23 AM EDT 9:28 PM EDT
Moon 6:46 PM EDT (4/24) 5:07 AM EDT (4/24)
Length of Visible Light 14h 39m
Length of Day
13h 41m
Waxing Gibbous, 98% of the Moon is Illuminated
Apr 24
Waxing Gibbous
Apr 25
Full
May 2
Last Quarter
May 9
New
May 18
First Quarter

Hourly Weather History & Observations

Time (EDT) Temp. Windchill Dew Point Humidity Pressure Visibility Wind Dir Wind Speed Gust Speed Precip Events Conditions
12:15 AM 46.9 °F - 39.7 °F 76% 30.12 in 10.0 mi WNW 5.8 mph - N/A   Clear
12:35 AM 46.8 °F - 39.6 °F 76% 30.12 in 10.0 mi NW 4.6 mph - N/A   Clear
12:55 AM 46.8 °F - 39.4 °F 75% 30.10 in 10.0 mi NW 4.6 mph - N/A   Clear
1:15 AM 46.0 °F 44.8 °F 39.2 °F 77% 30.09 in 10.0 mi NW 3.5 mph - N/A   Clear
1:35 AM 45.5 °F 41.8 °F 39.4 °F 79% 30.09 in 10.0 mi WNW 6.9 mph - N/A   Clear
1:55 AM 45.5 °F 43.2 °F 39.2 °F 79% 30.09 in 10.0 mi WNW 4.6 mph - N/A   Clear
2:15 AM 45.0 °F 41.8 °F 39.2 °F 80% 30.08 in 10.0 mi WNW 5.8 mph - N/A   Clear
2:35 AM 44.6 °F 42.2 °F 39.0 °F 81% 30.08 in 10.0 mi WNW 4.6 mph - N/A   Clear
2:55 AM 43.9 °F - 38.8 °F 82% 30.07 in 10.0 mi Calm Calm - N/A   Clear
3:15 AM 42.8 °F - 38.3 °F 84% 30.06 in 10.0 mi Calm Calm - N/A   Clear
3:35 AM 43.9 °F 42.3 °F 38.8 °F 82% 30.06 in 10.0 mi WNW 3.5 mph - N/A   Clear
3:55 AM 43.0 °F 39.5 °F 38.5 °F 84% 30.06 in 10.0 mi West 5.8 mph - N/A   Clear
4:15 AM 42.3 °F 38.6 °F 38.5 °F 86% 30.07 in 10.0 mi West 5.8 mph - N/A   Clear
4:35 AM 41.5 °F 38.6 °F 38.1 °F 88% 30.07 in 10.0 mi WNW 4.6 mph - N/A   Clear
4:55 AM 42.6 °F 40.9 °F 38.7 °F 86% 30.06 in 10.0 mi WNW 3.5 mph - N/A   Clear
5:15 AM 41.9 °F 40.0 °F 38.3 °F 87% 30.06 in 10.0 mi WNW 3.5 mph - N/A   Clear
5:35 AM 41.5 °F 39.6 °F 37.9 °F 87% 30.06 in 10.0 mi WNW 3.5 mph - N/A   Clear
5:55 AM 41.9 °F 39.0 °F 38.3 °F 87% 30.07 in 10.0 mi West 4.6 mph - N/A   Clear
6:15 AM 42.4 °F 38.8 °F 38.7 °F 86% 30.08 in 10.0 mi West 5.8 mph - N/A   Clear
6:35 AM 41.9 °F - 38.3 °F 87% 30.07 in 10.0 mi Calm Calm - N/A   Clear
6:55 AM 43.0 °F - 39.0 °F 86% 30.07 in 10.0 mi Calm Calm - N/A   Clear
7:15 AM 45.1 °F 43.7 °F 40.1 °F 82% 30.08 in 10.0 mi West 3.5 mph - N/A   Clear
7:35 AM 46.4 °F 44.3 °F 40.1 °F 79% 30.08 in 10.0 mi WNW 4.6 mph - N/A   Clear
7:55 AM 47.1 °F - 40.1 °F 77% 30.08 in 10.0 mi Calm Calm - N/A   Clear
8:15 AM 48.6 °F - 40.5 °F 74% 30.07 in 10.0 mi Calm Calm - N/A   Clear
8:35 AM 50.9 °F - 41.0 °F 69% 30.07 in 10.0 mi Calm Calm - N/A   Clear
8:55 AM 53.1 °F - 42.4 °F 67% 30.06 in 10.0 mi WSW 5.8 mph - N/A   Clear
9:15 AM 54.7 °F - 43.5 °F 66% 30.05 in 10.0 mi West 6.9 mph - N/A   Clear
9:35 AM 55.4 °F - 44.2 °F 66% 30.05 in 10.0 mi West 9.2 mph - N/A   Clear
9:55 AM 56.8 °F - 44.6 °F 64% 30.04 in 10.0 mi West 8.1 mph - N/A   Clear
10:15 AM 57.9 °F - 44.4 °F 61% 30.04 in 10.0 mi West 9.2 mph 16.1 mph N/A   Clear
10:35 AM 59.0 °F - 44.6 °F 59% 30.04 in 10.0 mi West 8.1 mph - N/A   Clear
10:55 AM 61.3 °F - 45.3 °F 56% 30.03 in 10.0 mi West 9.2 mph - N/A   Clear
11:15 AM 63.1 °F - 46.8 °F 55% 30.02 in 10.0 mi West 8.1 mph - N/A   Clear
11:35 AM 64.0 °F - 45.9 °F 52% 30.01 in 10.0 mi WSW 10.4 mph - N/A   Clear
11:55 AM 65.5 °F - 46.6 °F 50% 29.99 in 10.0 mi SW 8.1 mph - N/A   Clear
12:15 PM 65.7 °F - 47.7 °F 52% 29.98 in 10.0 mi West 10.4 mph - N/A   Clear
12:35 PM 66.9 °F - 46.6 °F 48% 29.97 in 10.0 mi SW 5.8 mph - N/A   Clear
12:55 PM 67.3 °F - 47.3 °F 49% 29.96 in 10.0 mi WSW 4.6 mph - N/A   Clear
1:15 PM 67.6 °F - 47.5 °F 48% 29.95 in 10.0 mi WSW 6.9 mph - N/A   Clear
1:35 PM 69.8 °F - 48.2 °F 46% 29.93 in 10.0 mi WSW 5.8 mph - N/A   Clear
1:55 PM 70.3 °F - 49.1 °F 47% 29.93 in 10.0 mi SW 6.9 mph - N/A   Clear
2:15 PM 71.2 °F - 49.3 °F 46% 29.92 in 10.0 mi SW 5.8 mph - N/A   Clear
2:35 PM 71.8 °F - 48.6 °F 44% 29.90 in 10.0 mi South 6.9 mph - N/A   Clear
2:55 PM 72.3 °F - 48.9 °F 43% 29.89 in 10.0 mi South 9.2 mph - N/A   Clear
3:15 PM 73.6 °F - 48.9 °F 42% 29.87 in 10.0 mi South 9.2 mph - N/A   Clear
3:35 PM 74.1 °F - 49.5 °F 42% 29.86 in 10.0 mi South 8.1 mph - N/A   Clear
3:55 PM 73.6 °F - 49.6 °F 43% 29.85 in 10.0 mi SE 10.4 mph - N/A   Clear
4:15 PM 72.9 °F - 49.8 °F 44% 29.85 in 2.5 mi SE 8.1 mph - N/A   Haze
4:35 PM 72.5 °F - 50.0 °F 45% 29.85 in 10.0 mi SE 9.2 mph - N/A   Clear
4:55 PM 72.0 °F - 51.1 °F 48% 29.84 in 10.0 mi SE 10.4 mph - N/A   Clear
5:15 PM 71.6 °F - 51.8 °F 50% 29.84 in 10.0 mi SE 9.2 mph - N/A   Clear
5:35 PM 71.6 °F - 52.2 °F 50% 29.83 in 10.0 mi SE 9.2 mph - N/A   Clear
5:55 PM 70.5 °F - 52.3 °F 52% 29.82 in 10.0 mi SE 10.4 mph - N/A   Clear
6:15 PM 71.2 °F - 52.7 °F 52% 29.81 in 10.0 mi SSE 12.7 mph 18.4 mph N/A   Clear
6:35 PM 69.8 °F - 52.7 °F 54% 29.82 in 10.0 mi South 11.5 mph 17.3 mph N/A   Clear
6:55 PM 68.5 °F - 52.3 °F 56% 29.82 in 10.0 mi SSE 11.5 mph - N/A   Clear
7:15 PM 66.4 °F - 52.2 °F 60% 29.83 in 10.0 mi SSE 10.4 mph - N/A   Clear
7:35 PM 66.2 °F - 52.2 °F 61% 29.83 in 10.0 mi South 6.9 mph - N/A   Clear
7:55 PM 64.9 °F - 52.0 °F 63% 29.85 in 10.0 mi South 6.9 mph - N/A   Clear
8:15 PM 64.8 °F - 52.2 °F 64% 29.86 in 10.0 mi South 6.9 mph - N/A   Clear
8:35 PM 64.2 °F - 52.0 °F 64% 29.86 in 10.0 mi South 6.9 mph - N/A   Clear
8:55 PM 63.1 °F - 51.8 °F 66% 29.87 in 10.0 mi SSE 6.9 mph - N/A   Clear
9:15 PM 62.1 °F - 51.4 °F 68% 29.88 in 10.0 mi South 6.9 mph - N/A   Clear
9:35 PM 61.7 °F - 51.4 °F 69% 29.88 in 10.0 mi SSE 6.9 mph - N/A   Clear
9:55 PM 61.3 °F - 51.4 °F 70% 29.88 in 10.0 mi SSE 5.8 mph - N/A   Clear
11:15 PM 59.9 °F - 52.0 °F 75% 29.87 in 10.0 mi South 3.5 mph - N/A   Scattered Clouds
11:35 PM 59.9 °F - 52.3 °F 76% 29.86 in 10.0 mi South 4.6 mph - N/A   Mostly Cloudy
11:55 PM 60.1 °F - 52.7 °F 77% 29.87 in 10.0 mi South 5.8 mph - N/A   Overcast